星链-3968 (STARLINK-3968 )

导读

STARLINK-3968是美国太空探索技术公司(SpaceX)星链卫星互联网项目的一员,于2022年5月14日发射升空,属于星链低轨卫星星座的组网卫星,旨在为全球范围内用户提供高速互联网服务,运行在近地轨道,是星链规模持续扩张过程中部署的卫星之一。

基本信息
目录编号:
52639
目录名称:
STARLINK-3968
国际标识:
2022-052AT
轨道中心:
EARTH
卫星名称:
星链-3968
卫星全名:
星链-3968 (STARLINK-3968 )
卫星状态:
在轨 (已飞行1574 天)
发射日期:
2022-05-14 UTC
国别 :
美国 (US)
星等 :
--
轨道信息
数据来源 国际轨道数据
星历时间: 2026-09-03T10:11:36+0800
1天前
查看轨道信息
半长轴: 6840.867km
偏心率: 0.0001057
轨道倾角: 53.160°
近地点辐角 92.189°
升交点赤经 173.435°
平近点角 267.924°
近地点: 462.006km
远地点: 463.454km
周期: 93.848分钟
每日圈数: 15.34391
详细信息
固有亮度:
5
最大亮度:
2.5
卫星平台:
Starlink v1.5
覆盖范围:
全球
运营商:
太空探索技术公司
运营商所在国:
美国
制造商(研发单位):
太空探索技术公司
制造商所在国:
美国
使用方式:
暂无
卫星简介
星链(Starlink)计划是由太空探索技术公司(SpaceX)提出的一个巨型低轨卫星互联网星座项目,计划在2019年至2024年间在太空搭建由约1.2万颗卫星组成的“星链”网络,其中1584颗将部署在地球上空550千米处的近地轨道,并从2020年开始工作。该卫星仍在工作。
2D轨道图
3D轨道图
轨道高度分析图
轨道倾角分析图
轨道综合分析图
查看轨道综合分析图
交会数据列表
事件ID 空间交会对象 最接近时刻(TCA) 交会距离 交会风险概率(CRP) 交会风险指数(CRI) 操作
CDM_260904-230405-263906-542821
2026-09-04T
23:04:24+0000
0.047 km
近距离
1.356367E-3 极高风险 0.98
CDM_260904-160205-263906-542823
2026-09-04T
16:02:20+0000
1.082 km
极远距离
9.439447E-6 低风险 0.54
CDM_260904-173605-263906-542823
2026-09-04T
17:36:08+0000
2.137 km
极远距离
1.235672E-6 低风险 0.37
CDM_260827-194605-110805-263921
2026-08-27T
19:46:21+0000
2.933 km
极远距离
6.285029E-7 极低风险 0.31